sat.trackr.live / text

‹ back to catalog

STARLINK-2448

NORAD 48111 · 2021-027V

PAYLOAD ACTIVE UNKNOWN

§ Identity

Operator
Country
US
Launch date
2021-04-07
Launch site
AFETR
Launch vehicle
Mass (kg)
RCS (m²)

Purposes: comms

External: N2YO · Heavens-Above · Gunter

§ Orbital elements

Epoch: 2026-09-17T16:56:28.623840Z

Period
92.67 min
Inclination
53.1523°
Eccentricity
0.0003928
Mean motion
15.53929265 rev/d
Perigee alt
402.6 km
Apogee alt
407.9 km
Semi-major
6,783.4 km
B*
9.3232e-4
RAAN
327.2925°
Arg perigee
17.0986°
Mean anomaly
343.0157°
Rev number
30,228

§ Raw data

STARLINK-24481 48111U 21027V   26260.70588685  .00061196  00000+0  93232-3 0  99942 48111  53.1523 327.2925 0003928  17.0986 343.0157 15.53929265302284

JSON: /api/v1/satellites/48111 · /tle

For live sub-satellite position, see the globe view (requires WebGL).

§ Visibility from observer

Set your observer location to see the next 7 days of passes ≥ 10°. The values pass through the URL so the page stays shareable.

No JS? Fill the form by hand. The geolocation button needs JavaScript.